GW1172 Weather Reports


time (UTC)temp
F
wind
direction
speed
knots
gust
knots
rain 1hr
in
rain 24hr
in
rain mn
in
humidity
%
barometer
mb
20260505153044 65 123 0.0 2.6 0.00 0.31 0.31 94 1006.4
20260505151547 64 0 0.0 4.3 0.00 0.31 0.31 96 1006.6
20260505130104 61 0 0.0 0.0 0.00 0.31 0.31 99 1006.8
20260505124541 61 0 0.0 0.0 0.00 0.31 0.31 99 1006.7
20260505123043 61 0 0.0 1.7 0.00 0.31 0.31 99 1006.4
20260505121544 60 0 0.0 4.3 0.00 0.31 0.31 98 1006.2
20260505120039 60 39 0.9 5.2 0.01 0.31 0.31 98 1006.2
20260505114538 60 0 0.0 5.2 0.01 0.31 0.31 98 1006.0
20260505113044 60 0 0.0 0.0 0.01 0.31 0.31 98 1005.3
20260505111540 61 0 0.0 0.0 0.03 0.31 0.31 98 1005.5
20260505101547 62 0 0.0 0.9 0.02 0.28 0.28 98 1006.1
20260505100043 61 0 0.0 0.0 0.03 0.28 0.28 98 1005.5
20260505094542 61 0 0.0 0.0 0.07 0.28 0.28 98 1005.9
20260505093042 61 0 0.0 0.0 0.10 0.27 0.27 97 1006.3
20260505091541 61 0 0.0 7.0 0.12 0.26 0.26 97 1005.8
20260505090041 62 219 0.0 2.6 0.15 0.25 0.25 97 1007.1
20260505084545 61 0 0.0 0.9 0.13 0.20 0.20 96 1006.9
20260505083042 62 0 0.0 1.7 0.13 0.17 0.17 96 1006.8
20260505081549 62 0 0.0 6.1 0.13 0.14 0.14 95 1006.8
20260505080044 62 0 0.0 6.1 0.09 0.09 0.09 93 1007.0
20260505074540 62 0 0.0 3.5 0.07 0.07 0.07 92 1007.0
20260505073049 63 0 0.9 4.3 0.04 0.04 0.04 91 1006.7
20260505071551 64 0 0.0 0.0 0.01 0.01 0.01 89 1006.6
20260505070043 65 0 0.0 0.0 0.00 0.00 0.00 85 1006.4
20260505064541 65 0 0.0 0.0 0.00 0.00 0.00 82 1006.3
20260505063038 66 0 0.0 0.0 0.00 0.00 0.00 80 1006.5
20260505061539 66 0 0.0 0.0 0.00 0.00 0.00 80 1006.7
20260505060039 66 0 0.0 0.0 0.00 0.00 0.00 79 1007.0
20260505054553 65 0 0.0 0.0 0.00 0.00 0.00 79 1007.0
20260505053054 65 0 0.0 0.0 0.00 0.00 0.00 80 1006.6
20260505051549 65 0 0.0 0.0 0.00 0.00 0.00 79 1006.8
20260505041543 67 0 0.0 0.0 0.00 0.00 0.00 76 1007.3
20260505040052 67 0 0.0 0.0 0.00 0.00 0.00 75 1007.5
20260505034540 68 0 0.0 0.0 0.00 0.00 0.00 75 1007.6
20260505033041 67 0 0.0 0.0 0.00 0.00 0.00 75 1007.5
20260505031536 67 0 0.0 0.0 0.00 0.00 0.00 76 1007.7
20260505030048 68 0 0.0 0.9 0.00 0.00 0.00 75 1007.5
20260505024547 68 0 0.0 0.0 0.00 0.00 0.00 72 1007.6
20260505023039 69 0 0.0 0.0 0.00 0.00 0.00 71 1007.7
20260505021545 70 0 0.0 2.6 0.00 0.00 0.00 69 1007.5
20260505020043 71 0 0.0 0.9 0.00 0.00 0.00 68 1007.1
20260505014544 71 0 0.0 4.3 0.00 0.00 0.00 68 1007.0
20260505013040 71 0 0.0 0.9 0.00 0.00 0.00 70 1006.8
20260505011552 72 0 0.0 0.9 0.00 0.00 0.00 69 1006.6
20260505010047 73 0 0.0 2.6 0.00 0.00 0.00 66 1006.3
20260505004541 74 0 0.0 1.7 0.00 0.00 0.00 65 1006.2
20260505003050 75 0 0.0 0.9 0.00 0.00 0.00 64 1006.0
20260505001543 76 0 0.0 2.6 0.00 0.00 0.00 61 1005.9
20260505000044 77 135 0.0 1.7 0.00 0.00 0.00 60 1005.9
20260504234539 78 0 0.0 1.7 0.00 0.00 0.00 59 1005.8
20260504233042 79 0 0.0 2.6 0.00 0.00 0.00 57 1005.9
20260504231541 80 0 0.0 3.5 0.00 0.00 0.00 54 1006.0
20260504230044 80 143 0.0 7.0 0.00 0.00 0.00 55 1006.1
20260504224541 81 0 0.9 7.8 0.00 0.00 0.00 53 1006.1
20260504223040 81 0 3.5 11.3 0.00 0.00 0.00 53 1006.1
20260504221541 81 251 0.9 13.0 0.00 0.00 0.00 52 1006.2
20260504220048 81 270 5.2 14.8 0.00 0.00 0.00 48 1006.2
20260504214552 82 311 3.5 11.3 0.00 0.00 0.00 49 1006.4
20260504213048 82 264 5.2 13.9 0.00 0.00 0.00 50 1006.5
20260504211542 81 195 6.1 18.2 0.00 0.00 0.00 50 1006.5
20260504210041 82 287 6.1 11.3 0.00 0.00 0.00 49 1006.7
20260504204549 82 257 2.6 11.3 0.00 0.00 0.00 53 1006.9
20260504203045 82 190 4.3 13.0 0.00 0.00 0.00 51 1007.1
20260504201543 81 219 3.5 12.2 0.00 0.00 0.00 51 1007.2
20260504200049 81 130 1.7 13.0 0.00 0.00 0.00 54 1007.3
20260504194542 81 205 6.1 12.2 0.00 0.00 0.00 51 1007.4
20260504193040 80 291 4.3 18.2 0.00 0.00 0.00 53 1007.5
20260504191551 80 237 4.3 15.6 0.00 0.00 0.00 53 1007.7
20260504190059 80 266 5.2 15.6 0.00 0.00 0.00 53 1007.7
20260504184554 79 250 4.3 13.0 0.00 0.00 0.00 54 1007.8
20260504183048 79 262 4.3 12.2 0.00 0.00 0.00 55 1008.1
20260504181546 79 137 1.7 11.3 0.00 0.00 0.00 57 1008.2
20260504180039 79 0 0.9 11.3 0.00 0.00 0.00 56 1008.2
20260504174547 78 148 3.5 10.4 0.00 0.00 0.00 54 1008.4
20260504173042 78 0 0.9 8.7 0.00 0.00 0.00 54 1008.5
20260504171542 78 240 2.6 10.4 0.00 0.00 0.00 55 1008.6